Regional Weather Roundup
Issued by NWS

Home | Current Version | Previous Version | Graphics & Text | Print | Product List | Glossary On
Versions: 1 2 3 4 5 6 7 8 9 10 11 12 13 14 15 16 17 18 19 20 21 22 23 24 25 26 27 28 29 30 31 32 33 34 35 36 37 38 39 40 41 42 43 44 45 46 47 48 49 50
000
ASUS43 KIND 240809
RWRIN

WEATHER ROUNDUP FOR INDIANA
NATIONAL WEATHER SERVICE INDIANAPOLIS IN
300 AM EST FRI NOV 24 2017

NOTE: "FAIR" INDICATES FEW OR NO CLOUDS BELOW 12,000 FEET WITH NO
SIGNIFICANT WEATHER AND/OR OBSTRUCTIONS TO VISIBILITY.

* - STATION DOES NOT REPORT WEATHER SUCH AS PRECIPITATION OR FOG.

+ - STATION NOT QUALITY CONTROLLED BY THE NATIONAL WEATHER SERVICE.
    USE DATA WITH CAUTION...ESPECIALLY DEWPOINT AND RELATIVE
    HUMIDITY OBSERVATIONS.

INZ001>003-010>013-019-020-240900-
NORTHWEST INDIANA

CITY           SKY/WX    TMP DP  RH WIND       PRES   REMARKS
GARY /AIRPORT/ CLEAR     35  28  76 S6        29.87F WCI  30
KNOX *+        CLEAR     32  27  80 CALM      29.89F
LA PORTE +     CLEAR     31  25  80 SW5       29.89F WCI  26
MICHIGAN CITY+ CLEAR     34  27  75 S7        29.88F WCI  28
MONTICELLO +   CLEAR     33  23  64 S6        29.91F WCI  28
RENSSELAER +   CLEAR     32  25  74 S3        29.90F
VALPARAISO     CLEAR     33  26  75 S7        29.89F WCI  27

$$

LMZ046-743>745-240900-
SOUTHERN LAKE MICHIGAN

STATION/POSITION TIME  TEMP    WIND        PRES    WAVE
                       AIR SEA DIR/SP/G            HT
                 (UTC) (F)     (DEG/KT/KT) (MB)    (FT)
BURNS HARBOR     0740   34     180/  9/ 12 1012.2F
MICHIGAN CITY    0740   36     160/ 13/ 15   N/A

$$

INZ004-005-014>016-021>024-240900-
NORTH CENTRAL INDIANA

CITY           SKY/WX    TMP DP  RH WIND       PRES   REMARKS
GOSHEN         CLEAR     33  23  66 S8        29.90F WCI  26
LOGANSPORT +   CLEAR     32  27  80 S7        29.92F WCI  26
PERU/GRISSOM   CLEAR     32  25  75 S9        29.91F WCI  25
ROCHESTER +    CLEAR     36  27  69 S6        29.91S WCI  31
SOUTH BEND     CLEAR     31  25  78 S7        29.89F WCI  24
WARSAW +       CLEAR     34  23  64 CALM      29.91S

$$

INZ006>009-017-018-025>027-240900-
NORTHEAST INDIANA

CITY           SKY/WX    TMP DP  RH WIND       PRES   REMARKS
AUBURN +       CLEAR     32  23  69 S5        29.92F WCI  27
FORT WAYNE     CLEAR     31  25  78 S8        29.94R WCI  23
HUNTINGTON +   CLEAR     32  23  69 SW5       29.93S WCI  27
KENDALLVILLE + CLEAR     32  24  71 SW7       29.90F WCI  26

$$

INZ028-029-035-036-043>045-051>053-240900-
WEST CENTRAL INDIANA

CITY           SKY/WX    TMP DP  RH WIND       PRES   REMARKS
CRAWFORDSVL +  CLEAR     30  24  78 MISG      29.91F
GREENCASTLE +  CLOUDY    32  23  69 S3        29.94F
LAFAYETTE      CLEAR     32  24  72 S3        29.93S
TERRE HAUTE    CLEAR     29  22  75 SE5       29.94F WCI  24

$$

INZ030>032-037>040-046>048-054>057-064-065-240900-
CENTRAL INDIANA

CITY           SKY/WX    TMP DP  RH WIND       PRES   REMARKS
CP ATTERBURY + CLOUDY    27  23  86 CALM      29.98F
FISHERS *+     CLOUDY    28  27  93 CALM      29.95
FRANKFORT +    CLEAR     35  27  73 S7        29.94S WCI  29
GREENWOOD *+   CLOUDY    33  25  73 CALM      29.96F
INDIANAPOLIS   CLOUDY    31  23  72 S6        29.95F WCI  25
-EAGLE CREEK   CLOUDY    29  22  75 CALM      29.95S
KOKOMO +       CLEAR     32  25  75 S8        29.93F WCI  25
MARION +       CLEAR     32  25  75 S9        29.95S WCI  24
MT COMFORT *+  CLOUDY    30  27  86 S7        29.96S WCI  23
SHELBYVILLE    CLOUDY    30  22  72 S7        29.96F WCI  23
ZIONSVILLE +   CLEAR     31  23  73 S5        29.95S WCI  26

$$

INZ033-034-041-042-049-050-058-059-240900-
EAST CENTRAL INDIANA

CITY           SKY/WX    TMP DP  RH WIND       PRES   REMARKS
MUNCIE         CLEAR     35  24  64 S7        29.95S WCI  29
RICHMOND +     CLOUDY    28  25  86 S8        29.96F WCI  20

$$

INZ060-061-067>069-081>083-085>088-240900-
SOUTHWEST INDIANA

CITY           SKY/WX    TMP DP  RH WIND       PRES   REMARKS
EVANSVILLE     CLOUDY    29  26  89 CALM      29.99F
HUNTINGBURG +  CLOUDY    36  24  62 S6        29.99F WCI  31
WASHINGTON +   CLOUDY    32  23  70 SE7       29.97S WCI  26

$$

INZ062-063-066-070>080-084-089>092-240900-
SOUTH CENTRAL AND SOUTHEAST INDIANA

CITY           SKY/WX    TMP DP  RH WIND       PRES   REMARKS
BEDFORD +      CLOUDY    32  23  69 S6        29.97F WCI  26
BLOOMINGTON    CLOUDY    28  21  75 SE5       29.96F WCI  23
MADISON *+     CLOUDY    30  28  93 CALM      30.02S
NORTH VERNON + CLOUDY    27  23  86 CALM      29.99F
SEYMOUR +      CLOUDY    28  23  80 S3        29.99F

$$




USA.gov is the U.S. government's official web portal to all federal, state and local government web resources and services.